Theta_e
294 294 295 295 295 293 294 294 294 295 295 296 298 299 300 301 305 305 301 308 303 299 301 301 302 297 293 295 290 288 286 284 284 286 285 286 284 286 281 282 277 275 274 272 277 272 272 279 275 276 281 278 278 276
294 294 294 295 295 294 294 294 293 293 294 295 295 297 298 299 300 302 298 304 304 297 295 302 304 306 305 302 296 290 292 285 290 287 287 288 282 282 284 281 280 279 280 275 277 276 281 281 279 282 281 279 277 277
293 294 293 294 294 295 294 294 294 294 294 294 294 295 296 297 299 298 296 298 300 293 291 292 295 305 308 307 308 296 290 295 287 293 289 287 281 283 278 280 278 279 284 279 278 284 282 280 283 282 281 281 281 280
293 293 293 293 294 294 295 294 294 294 294 294 294 294 294 294 296 298 293 297 296 294 285 288 294 298 307 307 306 306 301 295 293 290 286 284 284 286 282 287 285 282 282 281 280 284 283 285 281 282 281 281 280 279
292 293 293 293 293 294 294 294 294 294 294 294 294 294 293 294 295 294 295 295 296 289 285 285 288 293 297 303 303 304 303 297 290 284 284 286 287 284 283 283 283 283 284 281 282 287 287 287 283 283 281 280 280 279
292 292 293 292 293 293 293 294 293 293 293 293 293 293 294 294 294 290 285 291 295 294 286 283 289 290 295 296 298 301 302 301 294 290 289 288 287 290 279 279 287 288 290 292 290 285 285 285 285 283 282 281 280 280
292 292 292 293 293 293 293 293 293 293 293 293 293 293 293 293 290 285 284 291 296 294 286 283 283 286 290 292 294 296 299 299 299 291 290 288 286 289 284 284 290 291 291 291 288 282 280 280 281 283 283 281 281 280
292 292 292 292 292 292 293 293 293 293 293 293 293 293 293 293 292 286 289 294 294 287 285 278 279 279 286 288 288 292 293 295 294 292 283 287 282 284 282 288 291 293 287 288 284 286 285 282 281 282 281 278 275 274
291 291 291 291 292 292 292 293 293 293 293 292 293 293 289 285 281 284 293 294 292 285 278 281 278 277 284 282 283 282 285 281 286 283 282 281 278 275 279 285 288 290 286 283 282 282 281 281 280 276 276 276 275 271
291 291 291 291 291 292 292 293 293 293 293 292 288 277 270 277 292 290 283 279 282 283 282 277 283 279 282 280 278 279 280 278 274 278 280 276 275 282 282 280 282 285 282 282 279 277 280 280 278 275 275 276 276 271
291 291 291 291 292 292 292 292 292 292 291 283 276 273 280 289 284 278 274 277 279 273 278 279 280 279 282 276 277 281 276 277 272 274 275 273 272 282 284 279 281 283 283 284 285 283 284 283 280 276 275 276 274 271
291 291 291 291 292 292 292 292 292 287 282 282 280 283 283 278 274 268 269 275 276 274 276 278 279 282 282 282 272 278 275 275 270 277 273 270 274 280 282 281 281 282 282 283 284 283 283 282 280 278 276 273 272 270
291 291 291 291 292 292 292 292 292 291 289 283 281 272 275 270 268 269 264 270 275 270 276 277 276 282 280 281 278 276 272 271 277 272 270 273 272 273 278 280 280 283 283 283 281 283 282 280 279 277 275 273 268 264
290 290 290 290 291 291 291 292 292 290 283 277 272 265 265 264 266 266 273 275 277 276 271 276 276 277 279 276 276 271 272 272 269 265 265 268 271 273 273 278 280 277 278 280 280 279 278 277 276 274 272 267 265 261
289 289 289 290 290 291 291 291 291 284 279 274 272 265 261 268 274 277 272 269 278 279 278 278 278 279 276 272 271 267 265 266 268 264 265 267 271 270 274 276 278 279 280 279 278 277 274 271 269 263 264 264 262 259
288 288 285 289 290 290 290 288 284 283 280 272 268 268 266 265 271 274 275 274 279 279 281 280 276 274 272 270 267 264 264 263 266 267 262 261 262 271 273 275 276 278 279 275 275 272 269 266 263 258 258 258 258 258
287 276 287 288 289 290 290 281 283 276 269 264 267 267 274 270 272 276 278 277 282 280 276 276 272 271 273 270 269 268 264 260 258 258 258 257 257 259 264 267 267 269 267 266 264 261 258 257 258 257 254 254 255 255
276 281 286 288 288 285 280 280 274 262 263 271 271 269 274 265 262 262 261 264 268 279 277 271 272 266 258 263 259 254 255 255 260 258 257 257 257 257 258 259 260 260 259 258 258 257 257 258 257 253 252 252 252 252
281 283 287 286 286 279 277 275 276 272 271 272 272 273 273 262 263 260 258 259 262 261 260 256 250 248 249 252 250 251 252 253 253 256 259 258 257 256 256 256 257 256 256 256 257 255 254 254 254 253 253 254 253 253
284 284 284 285 285 276 269 268 269 265 261 269 271 269 267 263 260 258 256 255 255 253 249 248 247 248 249 251 252 252 253 255 254 256 259 257 257 256 256 256 255 256 255 255 254 254 253 253 254 254 254 254 253 252
276 275 279 278 278 273 268 263 262 265 263 265 270 270 265 262 257 255 253 254 251 248 247 249 249 250 252 252 254 254 254 254 256 258 258 256 256 256 256 257 257 256 255 255 253 253 253 252 253 254 254 253 253 254
267 277 269 270 269 268 266 264 261 266 265 267 268 266 262 257 254 253 254 250 248 249 250 249 250 250 250 252 253 253 254 257 257 257 257 257 255 255 255 256 256 254 254 253 253 253 253 254 254 254 254 253 254 254
270 269 265 261 261 261 259 265 260 260 259 261 264 259 258 256 256 257 250 250 250 252 252 251 251 253 253 254 254 253 254 255 254 255 255 254 254 255 255 255 256 255 253 253 255 254 254 255 255 254 255 255 254 253
265 258 255 252 253 252 257 256 258 257 259 257 258 256 255 255 257 251 247 248 251 252 251 251 252 252 253 253 252 252 253 256 255 254 255 254 253 253 254 254 255 255 255 255 255 254 255 254 255 254 254 254 253 252
253 249 250 246 250 250 251 252 251 252 252 252 254 253 253 255 249 247 247 248 250 250 251 252 251 253 251 251 252 252 254 254 253 252 252 256 255 255 254 254 253 254 256 254 253 253 253 254 254 254 253 253 253 252
246 248 247 246 247 246 248 247 247 246 248 249 248 250 254 251 247 245 247 249 249 250 250 251 250 251 252 252 251 251 251 254 254 251 251 252 253 254 253 252 252 252 253 254 254 253 253 253 253 253 253 253 253 251
245 246 250 253 249 249 248 247 246 245 244 244 246 248 251 246 245 247 251 252 251 252 253 254 253 252 251 252 253 254 254 254 252 252 252 252 252 252 251 251 250 250 251 252 253 253 252 251 251 250 248 246 243 244
250 250 246 248 247 246 241 242 243 243 244 247 245 243 243 245 246 249 251 253 253 254 255 255 255 255 254 254 254 254 254 253 252 251 253 254 253 252 250 249 250 255 251 250 250 250 248 248 247 245 244 245 245 245
250 251 245 243 242 244 245 245 246 247 249 241 240 242 244 248 249 250 252 253 254 253 252 252 253 255 255 255 254 253 253 253 251 249 249 249 250 252 252 250 249 248 248 250 257 251 249 248 248 248 247 247 248 248
248 249 244 243 243 245 247 247 247 249 250 246 247 248 248 249 252 254 252 252 251 250 251 251 251 251 250 250 250 251 251 250 250 249 248 248 249 250 250 246 245 243 244 245 248 248 255 252 254 248 248 248 248 248
245 244 244 244 245 245 246 248 248 248 248 247 246 245 245 247 250 252 252 250 249 248 248 247 246 246 246 246 242 243 246 245 245 245 246 246 245 244 245 246 245 241 240 242 243 243 245 245 243 242 243 243 243 245
242 238 240 242 244 246 245 244 242 243 244 245 245 245 244 243 242 244 248 247 248 247 245 242 242 244 242 243 242 241 246 242 243 245 245 248 245 244 245 244 242 242 242 244 242 243 243 241 241 241 241 243 243 244
239 240 239 240 242 242 240 241 242 240 239 238 240 238 238 241 243 245 248 246 245 243 243 242 241 241 241 243 244 243 245 241 241 251 252 254 254 252 248 245 242 242 243 243 243 243 242 241 242 242 243 243 243 243
Wind_Speed
20 17 20 19 17 16 19 18 20 23 22 21 22 22 23 23 22 13 8 10 12 14 16 17 23 17 4 19 16 6 5 1 3 13 9 8 9 11 7 7 14 14 13 7 7 5 20 16 8 15 5 1 5 5
23 22 18 21 21 17 19 19 18 19 21 23 23 24 23 23 25 20 11 9 9 12 13 12 30 33 31 29 19 13 9 9 11 8 7 6 6 5 11 12 2 9 14 14 16 16 3 24 8 20 5 7 5 7
25 24 24 20 23 22 20 21 20 21 21 21 23 25 25 26 24 21 10 8 7 8 12 16 16 28 25 30 26 16 6 11 8 5 6 5 6 6 9 9 6 6 9 6 4 22 24 19 12 11 7 7 6 6
24 25 24 24 24 24 24 23 23 23 23 24 23 24 26 27 27 23 11 7 8 6 6 8 2 13 24 24 27 29 19 10 6 5 5 6 7 10 9 5 13 10 17 17 12 22 3 18 20 13 12 8 7 7
25 26 25 23 25 23 23 23 23 23 24 24 23 25 24 27 28 18 11 9 9 8 6 4 3 8 11 16 28 27 24 15 9 7 8 11 5 6 2 4 9 12 16 15 16 15 13 9 23 20 19 16 15 15
27 28 26 23 23 25 23 24 23 23 22 23 25 24 24 26 26 6 8 9 14 11 8 7 4 14 19 16 17 31 26 23 11 11 10 7 6 13 10 11 12 20 23 25 27 8 10 5 16 22 21 18 16 16
25 25 25 25 25 25 23 26 23 23 22 23 24 25 24 25 12 9 5 7 17 7 6 9 11 10 14 13 12 14 17 12 14 8 11 8 11 14 7 16 18 28 28 22 11 11 4 8 9 18 17 17 18 13
23 25 25 23 25 24 25 26 24 26 23 23 24 24 25 26 21 15 13 20 19 5 4 6 5 5 3 12 13 8 14 13 13 10 2 8 4 5 10 18 29 31 10 17 18 16 11 12 9 13 8 13 16 14
23 23 24 24 24 25 26 26 27 26 24 23 23 25 12 6 6 8 15 24 8 8 6 5 6 13 6 3 1 3 3 9 4 8 8 9 7 10 13 25 26 26 20 11 14 9 14 17 14 13 14 15 16 13
24 24 24 24 25 26 26 27 26 24 24 23 10 2 4 5 9 7 5 5 8 10 10 13 8 12 4 1 3 2 3 4 5 6 6 5 5 5 12 9 6 13 14 22 20 12 13 12 14 15 19 19 17 17
24 23 22 24 25 26 25 23 22 21 19 2 2 5 4 11 3 4 5 7 6 7 9 13 20 20 6 4 3 3 2 2 4 4 9 6 4 16 13 9 8 14 19 23 19 26 22 21 19 17 14 14 13 16
22 23 23 24 25 24 22 22 23 11 4 8 6 3 2 4 4 6 7 7 8 9 5 15 21 19 4 3 4 6 5 3 6 4 3 3 6 6 16 17 14 15 17 19 17 20 17 15 18 18 16 13 14 14
18 19 20 21 22 23 23 23 23 18 7 2 2 4 4 6 8 8 8 6 4 2 4 5 3 8 5 5 3 5 8 7 6 5 5 6 5 4 8 14 18 18 20 19 12 15 17 16 16 17 15 11 14 14
18 20 21 23 23 24 23 22 20 15 3 5 4 7 6 7 7 4 5 6 5 5 3 4 5 5 4 5 3 4 2 2 5 4 8 5 9 8 7 9 10 10 13 16 14 16 15 15 12 9 12 15 17 16
20 22 23 23 22 22 24 21 17 1 4 5 5 7 7 8 8 7 2 3 5 4 5 2 1 3 2 3 3 5 2 4 5 7 4 4 9 4 8 7 9 10 11 12 12 14 13 13 13 11 9 11 13 15
21 20 9 15 16 22 17 4 3 3 3 4 5 5 6 6 12 9 6 10 5 4 3 2 3 3 4 5 4 7 9 8 2 4 6 10 14 9 5 5 5 6 11 12 11 12 13 13 14 12 11 10 11 14
18 4 15 20 21 22 15 1 2 4 6 4 6 4 12 8 11 10 7 6 2 5 4 3 5 3 4 3 4 6 4 5 7 8 7 9 11 12 9 7 7 8 10 11 12 12 10 12 15 14 13 7 10 11
4 9 22 21 18 3 2 2 3 3 6 7 4 6 1 4 4 5 8 8 9 3 1 3 7 6 6 4 4 6 6 9 5 8 8 12 14 12 10 8 9 10 12 12 12 12 12 12 12 9 13 12 13 12
13 12 11 18 15 1 3 2 3 4 5 1 4 4 2 4 5 7 8 9 6 6 6 7 10 6 5 5 6 9 9 8 9 10 7 11 11 10 10 10 10 12 13 12 11 9 8 10 9 9 9 9 10 8
11 10 16 15 7 1 2 3 2 2 2 2 2 5 5 5 6 7 10 12 8 6 11 9 5 4 5 8 8 9 9 9 9 8 3 7 7 9 10 8 8 9 10 12 11 12 10 10 8 7 7 8 10 9
8 8 12 10 2 4 4 3 4 0 3 2 3 1 4 3 7 9 8 10 8 10 6 4 5 8 9 9 7 6 8 8 7 3 3 4 6 6 7 7 8 8 8 7 8 9 9 8 7 7 8 8 8 8
3 12 4 8 5 4 4 3 1 4 3 3 3 4 5 4 4 7 4 12 7 3 6 7 9 9 9 10 9 9 8 7 8 7 10 6 5 6 7 7 7 9 9 7 7 8 8 7 7 8 9 9 9 9
9 7 5 8 6 9 3 7 6 6 5 6 3 5 5 4 4 4 8 5 4 6 8 8 10 8 7 8 7 10 10 9 7 7 7 7 6 7 8 10 8 8 8 8 6 7 9 11 10 9 9 9 9 8
11 9 8 6 8 6 6 7 6 6 6 6 5 5 5 4 3 6 6 4 7 9 10 14 10 8 7 11 9 10 11 7 8 10 9 8 9 10 9 9 9 9 8 7 7 8 8 8 10 8 8 9 8 7
12 12 8 10 6 8 9 7 8 7 5 7 6 5 5 4 6 6 4 7 9 9 11 11 10 9 8 8 8 9 14 9 8 9 9 7 6 7 9 9 9 9 6 7 7 8 8 7 7 7 6 7 8 8
12 6 6 6 5 6 6 6 6 7 5 6 6 6 3 5 7 6 4 6 6 6 10 10 10 8 9 10 9 10 10 9 6 9 9 9 9 8 8 8 7 8 8 5 6 7 8 6 7 8 7 7 7 7
9 5 4 3 2 3 4 4 3 5 6 9 6 8 4 7 6 2 3 2 3 4 7 6 6 6 6 6 6 6 7 9 9 7 6 9 9 9 7 7 8 3 4 5 5 5 6 6 6 6 5 4 3 3
4 5 7 8 4 4 4 5 6 7 5 5 4 8 5 5 2 3 2 5 6 6 5 5 6 6 6 7 7 7 5 4 2 3 3 8 8 8 9 7 6 9 5 5 5 5 5 5 5 5 3 4 2 2
5 7 3 7 5 6 5 5 6 3 3 3 4 3 3 2 2 2 3 5 5 4 6 6 7 6 6 7 9 9 9 8 9 13 12 8 7 9 7 5 4 5 4 4 6 5 7 5 5 4 5 3 2 2
6 5 4 5 6 7 4 1 3 4 4 2 3 3 3 2 3 3 4 4 5 4 4 4 4 5 6 6 6 9 9 8 8 5 5 5 3 4 4 4 4 4 3 4 4 4 8 5 5 3 2 1 1 1
5 4 5 5 4 2 3 4 3 2 4 4 3 4 2 1 2 2 3 3 2 2 3 3 4 5 5 6 4 4 5 3 5 5 3 2 2 2 3 3 2 2 3 4 4 3 3 3 2 1 2 4 5 4
6 5 3 4 2 4 4 4 2 3 4 4 4 3 4 4 3 4 2 2 3 4 3 2 3 4 2 2 1 1 3 4 4 5 6 4 3 4 3 2 1 1 1 1 1 1 0 2 3 4 4 7 7 7
3 4 3 3 5 6 5 5 5 4 4 3 2 1 2 3 3 5 3 1 4 4 3 3 4 3 4 5 5 4 3 3 5 9 9 9 7 6 2 1 1 1 2 2 3 2 4 4 4 5 7 7 8 8
Wind_Direction
287 288 289 293 293 300 302 297 298 301 292 292 296 298 302 309 309 273 269 273 257 276 231 198 212 207 152 205 212 152 105 162 166 217 221 210 216 202 173 181 174 165 166 193 201 212 260 141 113 190 205 32 146 142
285 288 288 289 290 284 291 299 296 294 299 293 291 290 295 292 299 307 278 252 261 252 286 252 222 212 207 194 203 183 199 160 193 193 202 209 208 172 177 218 159 193 186 177 192 210 195 182 191 203 150 148 179 158
279 282 284 290 288 285 281 281 288 293 296 298 292 283 287 294 292 289 293 307 276 253 262 250 242 234 228 222 214 221 213 204 184 179 178 207 214 153 177 217 136 242 190 222 121 242 228 206 218 194 169 160 153 159
275 279 277 282 289 287 285 282 281 284 287 289 292 297 289 281 288 290 275 284 287 285 252 242 176 253 233 226 223 222 210 185 147 162 197 180 201 188 196 209 195 180 154 204 243 266 12 225 217 192 185 160 145 135
275 273 273 273 279 284 286 280 278 282 284 286 293 288 294 293 279 286 280 259 243 254 297 289 326 271 262 240 227 227 225 198 185 181 205 215 181 169 176 140 192 192 191 189 223 223 202 236 196 192 185 181 160 164
273 276 271 273 282 282 286 284 285 286 289 287 287 291 289 297 286 288 271 220 216 216 256 257 245 227 237 211 237 229 224 224 199 205 213 203 208 202 187 200 220 221 225 215 238 150 180 188 193 186 186 179 164 174
278 272 271 273 272 279 284 281 282 284 284 282 287 288 288 295 282 237 260 306 311 340 263 245 241 205 212 236 229 232 230 228 223 213 230 201 197 204 211 226 210 230 230 222 209 116 137 169 183 182 179 176 169 172
278 275 271 271 274 278 282 283 281 281 283 285 284 289 289 289 292 266 257 259 270 273 226 246 288 306 224 209 211 202 216 217 218 230 94 215 155 220 229 218 235 242 199 212 193 190 173 151 141 159 136 137 159 163
276 277 273 272 279 281 283 286 284 279 281 284 287 289 296 269 243 243 246 256 242 223 245 262 205 253 161 185 304 165 252 206 159 216 206 164 164 211 206 214 225 230 208 175 153 156 136 157 160 148 146 168 170 161
268 273 273 273 276 280 284 283 279 277 279 283 293 67 284 238 288 305 288 215 214 206 224 240 245 258 201 218 170 137 203 238 218 208 134 219 236 204 224 212 204 182 159 156 153 151 153 165 168 169 180 177 175 169
273 275 276 277 277 279 278 278 274 275 284 116 195 216 245 314 302 238 228 236 197 196 185 213 222 228 218 172 160 226 223 225 246 219 185 208 236 221 209 193 179 179 174 180 184 182 175 173 172 174 179 172 154 156
273 274 273 275 278 277 278 276 274 268 193 195 204 306 268 243 221 215 218 220 221 209 218 196 211 213 162 159 134 172 198 212 248 159 257 258 256 225 185 189 179 172 178 178 174 173 171 166 170 173 167 158 155 149
287 288 286 284 281 281 279 271 267 265 276 78 165 232 211 247 235 240 223 266 270 267 223 159 166 182 137 194 209 179 196 206 140 189 224 235 261 309 207 186 185 184 179 172 157 148 163 162 160 164 155 148 136 136
317 312 305 297 294 288 282 271 275 251 142 186 192 247 186 253 239 211 322 304 288 276 294 248 143 161 153 187 145 170 353 66 202 225 226 236 222 213 208 194 170 165 157 153 149 136 147 158 147 129 145 145 143 144
310 304 298 292 290 295 284 271 250 137 152 207 201 230 235 232 263 285 258 309 286 266 241 209 163 144 141 122 117 84 102 228 219 232 241 320 312 202 157 161 148 151 145 136 133 137 141 135 124 105 115 128 126 129
322 314 291 315 313 312 308 272 76 153 194 213 247 258 268 299 272 275 279 282 269 233 245 231 194 179 182 141 179 197 164 210 243 358 339 345 337 358 50 62 93 128 138 131 130 129 123 128 129 117 99 108 125 137
325 244 324 314 308 309 266 138 146 198 201 244 259 237 244 255 262 277 281 283 256 246 232 226 214 192 119 196 156 9 26 6 334 330 347 342 344 339 335 62 68 88 96 102 100 96 98 106 113 112 113 105 109 110
247 291 299 298 315 200 95 105 147 152 240 234 247 263 327 39 328 4 338 338 320 261 209 36 356 31 19 14 36 7 336 329 321 351 351 357 353 354 10 35 46 72 87 84 88 96 106 119 113 102 113 114 105 103
299 294 302 327 318 115 154 234 166 241 226 37 326 319 28 108 94 43 357 343 336 351 58 40 50 34 353 4 331 321 320 330 321 326 357 3 356 4 27 42 57 69 79 85 88 86 80 79 102 113 119 119 114 119
319 325 339 324 340 92 35 321 43 28 301 342 331 2 59 47 3 7 18 6 4 46 45 44 33 335 308 309 307 299 304 312 315 317 23 12 6 26 39 50 62 75 80 84 81 87 91 87 82 94 99 117 122 121
360 337 348 356 78 53 68 1 328 349 299 2 329 21 98 94 29 12 21 353 52 36 24 2 321 309 305 289 294 311 304 306 305 314 354 26 16 35 46 48 58 64 72 73 83 77 75 89 100 104 101 97 101 102
297 345 29 4 35 17 77 30 273 303 326 336 17 53 41 32 19 28 36 30 56 23 350 315 315 313 314 338 342 341 325 348 20 38 42 29 24 27 35 37 55 65 62 61 73 89 90 89 94 95 97 100 100 102
7 20 47 14 25 25 351 348 27 9 20 354 25 43 47 44 42 45 66 40 22 348 338 334 325 329 338 346 356 12 9 29 37 40 46 48 43 49 55 51 48 66 75 64 73 82 87 91 92 93 98 98 100 97
28 44 29 34 14 358 331 9 1 358 13 20 15 47 39 36 70 65 68 12 343 340 353 355 350 356 360 18 23 17 7 14 44 45 34 39 45 39 43 52 52 54 59 73 70 75 76 82 92 92 96 102 103 112
66 358 44 358 0 0 18 9 356 12 39 348 21 30 22 17 61 58 27 345 343 351 355 354 358 15 18 10 14 14 14 15 32 47 16 22 56 67 61 57 51 39 30 71 71 78 76 74 78 86 93 101 116 113
66 343 45 356 347 24 347 8 23 3 357 11 27 335 5 58 61 50 3 332 329 336 346 351 350 355 24 26 24 18 7 3 34 54 28 21 23 46 57 59 51 34 9 35 69 79 78 78 87 92 91 98 108 112
46 339 347 39 9 342 43 21 13 34 24 11 354 345 22 63 59 24 333 358 315 320 323 338 354 8 8 3 3 14 27 34 48 60 47 42 41 36 40 56 49 2 339 45 64 76 96 92 90 91 100 73 97 136
60 46 3 333 37 12 65 24 28 18 359 343 352 23 62 30 62 339 320 324 325 321 337 10 14 27 31 29 28 21 11 14 0 0 37 65 55 43 31 28 23 38 34 49 67 72 87 109 117 123 118 135 190 204
25 347 45 11 18 41 43 24 13 331 326 95 100 62 87 46 320 315 316 333 339 13 30 22 16 11 37 46 44 37 33 25 46 54 49 38 23 21 9 13 17 19 12 25 73 118 125 127 140 145 159 161 184 161
340 349 60 29 50 44 342 44 311 315 24 156 117 95 65 32 6 351 11 10 28 31 18 28 12 26 32 33 33 38 32 28 28 39 44 25 340 315 331 352 358 352 9 32 27 3 31 43 80 61 76 83 193 210
326 4 56 37 67 305 293 306 296 344 20 35 25 82 125 217 319 354 34 7 349 341 38 21 18 17 42 32 34 29 357 340 359 345 345 287 287 309 321 325 332 19 33 40 36 35 33 30 31 337 286 268 268 252
7 42 80 60 327 314 11 17 334 51 350 36 356 20 10 37 4 302 306 50 22 22 349 31 35 335 307 277 203 185 173 277 313 319 322 313 307 299 305 334 14 54 32 15 9 331 279 244 270 264 261 273 275 275
15 19 37 33 2 3 344 8 21 360 24 28 329 248 219 165 207 255 300 152 167 191 231 245 246 250 253 234 224 235 237 255 302 329 325 322 329 318 304 166 52 37 1 318 298 275 260 260 261 263 269 265 266 265